Regional Weather Roundup
Issued by NWS

Home | Current Version | Previous Version | Text Only | Print | Product List | Glossary On
Versions: 1 2 3 4 5 6 7 8 9 10 11 12 13 14 15 16 17 18 19 20 21 22 23 24 25 26 27 28 29 30 31 32 33 34 35 36 37 38 39 40 41 42 43 44 45 46 47 48 49 50
000
ASUS43 KIND 291909
RWRIN

WEATHER ROUNDUP FOR INDIANA
NATIONAL WEATHER SERVICE INDIANAPOLIS IN
300 PM EDT TUE JUL 29 2014

NOTE: "FAIR" INDICATES FEW OR NO CLOUDS BELOW 12,000 FEET WITH NO
SIGNIFICANT WEATHER AND/OR OBSTRUCTIONS TO VISIBILITY.

* - STATION DOES NOT REPORT WEATHER SUCH AS PRECIPITATION OR FOG.

+ - STATION NOT QUALITY CONTROLLED BY THE NATIONAL WEATHER SERVICE.
    USE DATA WITH CAUTION...ESPECIALLY DEWPOINT AND RELATIVE
    HUMIDITY OBSERVATIONS.

INZ001>003-010>013-019-020-292000-
NORTHWEST INDIANA

CITY           SKY/WX    TMP DP  RH WIND       PRES   REMARKS
GARY /AIRPORT/ MOSUNNY   75  59  57 NE8       30.03S
KNOX *+        MOSUNNY   75  56  51 NW10      30.01S
LA PORTE +     SUNNY     73  56  55 W7G16     30.03F
MICHIGAN CITY+ SUNNY     70  55  60 NW5       30.03F
MONTICELLO +   CLOUDY    72  59  64 W8        30.03F
RENSSELAER +   PTSUNNY   73  59  60 W12       30.04S
VALPARAISO     SUNNY     75  55  49 NW12      30.03S

$$

LMZ046-743>745-292000-
SOUTHERN LAKE MICHIGAN

STATION/POSITION TIME  TEMP WIND        PRES
                       AIR  DIR/SP/G
                 (UTC) (F)  (DEG/KT/KT) (MB)
MICHIGAN CITY    1900   69  330/  4/  6   N/A

$$

INZ004-005-014>016-021>024-292000-
NORTH CENTRAL INDIANA

CITY           SKY/WX    TMP DP  RH WIND       PRES   REMARKS
GOSHEN         CLOUDY    71  57  61 W13       30.00F
LOGANSPORT +   CLOUDY    72  54  53 W8        30.04F
PERU/GRISSOM   MOSUNNY   75  58  56 W10       30.03F
ROCHESTER +    MOSUNNY   77  54  44 W6        30.03S
SOUTH BEND     MOSUNNY   74  55  51 W13       30.02F
WARSAW +       MOSUNNY   73  55  53 W8        30.02F

$$

INZ006>009-017-018-025>027-292000-
NORTHEAST INDIANA

CITY           SKY/WX    TMP DP  RH WIND       PRES   REMARKS
ANGOLA *+      PTSUNNY   73  61  64 W7        30.01S
AUBURN +       PTSUNNY   72  52  49 W8        30.03S
FORT WAYNE     PTSUNNY   72  55  55 W10       30.03F
HUNTINGTON +   PTSUNNY   71  53  52 SW6       30.02F

$$

INZ028-029-035-036-043>045-051>053-292000-
WEST CENTRAL INDIANA

CITY           SKY/WX    TMP DP  RH WIND       PRES   REMARKS
GREENCASTLE +  PTSUNNY   72  55  56 W5        30.08F
LAFAYETTE      MOSUNNY   77  56  48 W14       30.04F
TERRE HAUTE    PTSUNNY   75  58  55 NW6       30.08F

$$

INZ030>032-037>040-046>048-054>057-064-065-292000-
CENTRAL INDIANA

CITY           SKY/WX    TMP DP  RH WIND       PRES   REMARKS
ANDERSON       MOSUNNY   73  50  43 W6        30.07S
CP ATTERBURY + PTSUNNY   73  52  46 W6        30.09R HAZE
COLUMBUS       MOSUNNY   72  52  49 CALM      30.08S
INDIANAPOLIS   PTSUNNY   74  53  48 NW9       30.07F
-EAGLE CREEK   CLOUDY    74  52  46 NW10      30.06F
KOKOMO *+      MOSUNNY   75  57  53 W10       30.04F
MARION +       PTSUNNY   71  54  54 W9        30.05F
MT COMFORT *+  SUNNY     75  54  46 CALM      30.07S
SHELBYVILLE    CLOUDY    73  51  46 W5        30.07S
ZIONSVILLE +   CLOUDY    74  53  47 NW9       30.07S

$$

INZ033-034-041-042-049-050-058-059-292000-
EAST CENTRAL INDIANA

CITY           SKY/WX    TMP DP  RH WIND       PRES   REMARKS
MUNCIE         SUNNY     72  52  49 W10       30.05F

$$

INZ060-061-067>069-081>083-085>088-292000-
SOUTHWEST INDIANA

CITY           SKY/WX    TMP DP  RH WIND       PRES   REMARKS
EVANSVILLE     MOSUNNY   78  53  41 W7        30.11S
WASHINGTON +   PTSUNNY   74  59  59 NW8       30.08F

$$

INZ062-063-066-070>080-084-089>092-292000-
SOUTH CENTRAL AND SOUTHEAST INDIANA

CITY           SKY/WX    TMP DP  RH WIND       PRES   REMARKS
BEDFORD +      MOSUNNY   73  52  46 W5        30.09
BLOOMINGTON    CLOUDY    72  57  59 W3        30.09S
NORTH VERNON + MOSUNNY   72  54  53 CALM      30.09S

$$



USA.gov is the U.S. government's official web portal to all federal, state and local government web resources and services.